124  
ASUS44 KMEG 191910  
RWRMEG  
MEMPHIS CWA HOURLY WEATHER ROUNDUP  
NATIONAL WEATHER SERVICE MEMPHIS TN  
200 PM CDT TUE MAR 19 2019  
   
..WEST TENNESSEE
 
 
 
CITY SKY/WX TMP DP RH WIND PRES REMARKS
 
MEMPHIS INTL FAIR 60 24 25 E8 30.37F  
NWS MEMPHIS N/A 59 N/A N/A MISG N/A  
JACKSON FAIR 57 22 25 N7 30.38F  
COVINGTON SUNNY 57 23 26 CALM 30.38F  
SOMERVILLE SUNNY 59 21 23 N8 30.35F  
BOLIVAR SUNNY 57 21 24 NE7G15 30.35F  
LEXINGTON SUNNY 55 14 19 VRB6G17 30.36F  
UNION CITY SUNNY 57 25 28 VRB5 30.38F  
PARIS SUNNY 55 21 26 SE8 30.37F  
HUNTINGDON SUNNY 55 21 26 CALM 30.37F  
 
   
..EASTERN ARKANSAS
 
 
 
CITY SKY/WX TMP DP RH WIND PRES REMARKS
 
JONESBORO FAIR 58 30 34 S13 30.38F  
WEST MEMPHIS FAIR 62 29 28 E9 30.36F  
BATESVILLE SUNNY 60 29 30 VRB7 30.36F  
NEWPORT FAIR 60 28 29 SE7 30.38F  
WALNUT RIDGE FAIR 58 31 35 S9 30.37F  
BLYTHEVILLE FAIR 58 26 29 VRB3 30.39F  
SEARCY FAIR 61 31 32 E12 30.37F  
STUTTGART FAIR 60 27 28 S7 30.37F  
PINE BLUFF FAIR 62 30 29 SE8 30.36F  
MONTICELLO FAIR 63 27 25 NE10 30.34F  
 
   
..NORTH MISSISSIPPI
 
 
 
CITY SKY/WX TMP DP RH WIND PRES REMARKS
 
TUPELO FAIR 58 18 21 VRB7 30.35F  
OXFORD FAIR 59 19 21 VRB6G17 30.37F  
BATESVILLE FAIR 61 25 25 E8 30.35F  
OLIVE BRANCH SUNNY 57 23 26 E5 30.36F  
TUNICA N/A 59 27 29 NE7 30.38F  
CLARKSDALE SUNNY 64 25 22 VRB7 30.37F  
CORINTH FAIR 59 16 18 NE10 30.35F  
GREENWOOD FAIR 63 22 20 N12G20 30.34F  
COLUMBUS SUNNY 60 19 20 N8 30.33F  
STARKVILLE FAIR 59 23 25 E6G18 30.36F  
GOLDEN TRIANGL FAIR 59 22 24 NE6 30.34F  
 
   
..SOUTHEAST MISSOURI
 
 
 
CITY SKY/WX TMP DP RH WIND PRES REMARKS
 
KENNETT FAIR 59 27 29 S8G14 30.37F  
MALDEN FAIR 59 28 31 S7 30.39F  
WEST PLAINS SUNNY 57 29 34 S12 30.33F  
POPLAR BLUFF FAIR 56 31 38 S7 30.38F  
CAPE GIRARDEAU FAIR 55 26 32 S8 30.39F  
 
   
..NORTHWEST ALABAMA
 
 
 
CITY SKY/WX TMP DP RH WIND PRES REMARKS
 
MUSCLE SHOALS FAIR 57 20 23 SE8 30.37F  
 
   
..MIDDLE TENNESSEE
 
 
 
CITY SKY/WX TMP DP RH WIND PRES REMARKS
 
NASHVILLE FAIR 55 16 21 NE6 30.38F  
CLARKSVILLE FAIR 54 18 24 VRB3 30.39F  
DICKSON CLEAR 54 16 22 VRB3 30.36F  
COLUMBIA SUNNY 55 18 22 N8 30.35F  
LAWRENCEBURG CLEAR 54 18 24 E9 30.35F  
LEWISBURG CLEAR 54 18 24 CALM 30.36F  
 
   
..WESTERN KENTUCKY
 
 
 
CITY SKY/WX TMP DP RH WIND PRES REMARKS
 
PADUCAH FAIR 57 24 28 CALM 30.38F  
FORT CAMPBELL FAIR 53 21 28 SE3 30.38F  
 
   
..CENTRAL ARKANSAS
 
 
 
CITY SKY/WX TMP DP RH WIND PRES REMARKS
 
LITTLE ROCK SUNNY 61 30 31 SE8 30.36F  
 
SKY/WX REPORTED AS FAIR MEANS FEW OR NO CLOUDS BELOW  
12 THOUSAND FEET.  
 
 
 
CLICK HERE TO GO TO PREVIOUS BULLETINS.

The Nexlab TN Page
The Nexlab MS Page
The Nexlab AR Page Main Text Page